Location: The D'Auria's Ocala Star Observatory
(29.0276°N, 82.1742°W)
Time: 01:40:52
(UTC-05:00)

Okean 3 Rocket - Visible Passes

Search period start: 17 January 2018 00:00
Search period end: 27 January 2018 00:00
Orbit: 616 x 645 km, 82.5° (Epoch: 15 January)

Date Brightness Start Highest point End Pass type
(mag) Time Alt. Az. Time Alt. Az. Time Alt. Az.
17 Jan 4.3 05:50:01 10° N 05:54:20 53° E 05:58:37 10° SSE visible
17 Jan 3.9 18:16:08 10° SSE 18:20:30 49° E 18:24:52 10° NNE visible
18 Jan 3.5 06:10:47 10° NNW 06:15:09 64° W 06:19:29 10° S visible
18 Jan 3.9 18:36:47 10° SSW 18:41:17 72° W 18:45:49 10° N visible
19 Jan 6.3 04:55:01 10° NE 04:57:50 17° ENE 05:00:38 10° ESE visible
19 Jan 4.5 06:32:09 10° NNW 06:35:52 27° W 06:39:35 10° SSW visible
19 Jan 5.6 18:58:10 10° SW 19:02:11 31° W 19:06:13 10° NNW visible
20 Jan 5.0 05:15:42 15° NNE 05:18:49 36° E 05:22:52 10° SSE visible
20 Jan 5.4 06:54:43 10° WNW 06:56:29 12° W 06:58:14 10° WSW visible
20 Jan 6.6 19:20:43 10° WSW 19:23:13 14° WNW 19:25:42 10° NW visible
21 Jan 3.5 05:37:44 33° N 05:39:42 87° E 05:44:04 10° S visible
22 Jan 6.7 04:22:19 11° ENE 04:22:19 11° ENE 04:23:44 10° E visible
22 Jan 3.9 05:59:48 37° WNW 06:00:28 39° W 06:04:32 10° SSW visible
22 Jan 5.0 18:22:22 10° SSW 18:26:41 44° W 18:31:01 10° N visible
23 Jan 5.8 04:44:23 23° ESE 04:44:23 23° ESE 04:46:56 10° SE visible
23 Jan 5.1 06:21:51 17° W 06:21:51 17° W 06:24:01 10° SW visible
23 Jan 6.4 18:44:18 10° SW 18:47:40 20° WNW 18:51:01 10° NNW visible
24 Jan 5.2 05:06:25 27° SSE 05:06:25 27° SSE 05:08:31 10° SSE visible
25 Jan 5.7 05:28:25 16° S 05:28:25 16° S 05:29:18 10° S visible
